Location: Four Corners
(38.2757°N, 122.4608°W)
Time: 09:58:41
(UTC+00:00)

Cosmos 2278 Rocket - Pass Details

Date: 08 December 2019
Orbit: 842 x 844 km, 71.0° (Epoch: 17 January)

Event Time Altitude Azimuth Distance (km) Brightness Sun altitude
Rises 02:19:44 0° 336° (NNW) 3,407 5.5 -17.2°
Reaches altitude 10° 02:22:11 10° 335° (NNW) 2,468 4.7 -17.7°
Maximum altitude 02:27:51 78° 250° (WSW) 864 2.3 -18.8°
Drops below altitude 10° 02:33:28 10° 164° (SSE) 2,452 4.6 -19.9°
Sets 02:35:54 0° 163° (SSE) 3,383 5.3 -20.3°
